#timestamp,LO_Frequency,Hit,StdDev 
1600830015.8,286047001.1,N
1600830035.6,286046998.5,N
1600830055.5,286047001.1,N
1600830075.3,286046998.5,N
1600830095.1,286047000.5,N
1600830115.9,286047000.4,N
1600830135.7,286046999.5,N
1600830155.6,286047000.7,N
1600830175.4,286046998.1,N
1600830195.2,286046998.7,N
1600830215.1,286047000.8,N
1600830216.0,286047000.8,N
1600830235.8,286046998.2,N
1600830255.6,286046998.3,N
1600830275.5,286047001.2,N
1600830295.3,286047002.1,N
1600830315.2,286047002.6,N
1600830335.9,286047002.7,N
1600830355.7,286047002.4,N
1600830375.6,286046998.1,N
1600830395.4,286047000.6,N
1600830415.2,286047000.7,N
1600830435.1,286047000.3,N
1600830436.0,286047000.3,N
1600830455.8,286047002.2,N
1600830475.7,286047000.3,N
1600830495.5,286046998.4,N
1600830515.3,286046997.8,N
1600830535.2,286046997.3,N
1600830555.0,286046998.7,N
1600830555.9,286046998.7,N
1600830575.8,286047000.8,N
1600830595.6,286046998.3,N
1600830615.4,286046998.1,N
1600830635.3,286047001.2,N
1600830655.1,286046998.1,N
1600830675.8,286046998.4,N
1600830695.7,286046999.0,N
1600830715.5,286046997.2,N
1600830735.4,286046997.1,N
1600830755.2,286046996.2,N
1600830775.0,286046996.1,N
1600830775.9,286046996.1,N
1600830795.8,286046996.2,N
1600830815.6,286046994.5,N
1600830835.4,286046992.4,Y
1600830855.3,286046991.9,P
1600830875.1,286046994.4,N
1600830895.9,286046995.3,N
1600830915.7,286046996.0,N
1600830935.5,286046993.3,N
1600830955.4,286046995.8,N
1600830975.2,286046993.5,Y
1600830995.1,286047000.7,P
1600830996.0,286047000.7,N
1600831015.8,286047001.0,N
1600831035.6,286047001.2,N
1600831055.5,286047001.9,N
1600831075.3,286047004.1,N
1600831095.1,286047002.2,N
1600831115.9,286047003.9,N
1600831135.7,286047002.0,N
1600831155.6,286047001.3,N
1600831175.4,286047003.6,N
1600831195.2,286047007.6,Y
1600831215.1,286047001.7,P
1600831216.0,286047001.7,P
1600831235.8,286046999.9,N
1600831255.7,286047002.1,N
1600831275.5,286047002.6,Y
1600831295.3,286047000.5,P
1600831315.2,286047000.8,N
1600831335.0,286047002.7,P
1600831335.9,286047002.7,Y
1600831355.8,286046999.9,P
1600831375.6,286046998.8,N
1600831395.4,286046999.5,N
1600831415.3,286046999.0,N
1600831435.1,286047000.8,N
1600831455.8,286047002.7,N
1600831475.7,286046999.8,N
1600831495.5,286047000.3,N
1600831515.4,286046999.0,N
1600831535.2,286046997.0,N
1600831555.0,286046999.2,N
1600831555.9,286046999.2,N
1600831575.8,286046996.6,N
1600831595.6,286046999.4,N
1600831615.5,286046998.1,N
1600831635.3,286047001.0,N
1600831655.1,286046998.1,N
1600831675.9,286046998.3,N
1600831695.7,286046998.5,N
1600831715.5,286046999.0,N
1600831735.4,286046999.2,N
1600831755.2,286046996.9,N
1600831775.1,286046996.5,N
1600831776.0,286046996.5,N
1600831795.8,286046996.7,N
1600831815.6,286046998.3,N
1600831835.5,286047001.9,N
1600831855.3,286046998.9,N
1600831875.1,286046999.5,N
1600831895.9,286046999.0,N
1600831915.7,286046995.3,Y
1600831935.6,286046999.5,P
1600831955.4,286046997.2,P
1600831975.2,286046997.7,N
1600831995.1,286046999.4,N
1600831996.0,286046999.4,N
1600832015.8,286046999.5,N
1600832065.7,286046995.8,E
1600832075.6,286046996.8,N
1600832095.4,286046999.7,P
1600832115.3,286046998.2,N
1600832135.1,286047001.3,N
1600832155.9,286047004.3,N
1600832175.7,286047002.0,N
1600832195.5,286047003.8,N
1600832215.4,286047002.9,N
1600832235.2,286047005.8,N
1600832255.0,286047005.5,N
1600832255.9,286047005.5,N
1600832275.8,286047007.4,N
1600832295.6,286047005.1,N
1600832315.5,286047006.8,N
1600832335.3,286047005.7,N
1600832355.1,286047003.4,N
1600832375.9,286047001.3,N
1600832395.7,286047004.3,N
1600832415.5,286047003.8,N
1600832435.4,286047003.4,N
1600832455.2,286047003.0,N
1600832475.1,286047005.5,N
1600832476.0,286047005.5,N
1600832495.8,286047005.7,N
1600832515.6,286047005.4,N
1600832535.5,286047003.2,N
1600832555.3,286047006.0,N
1600832575.1,286047004.9,N
1600832595.9,286047004.6,N
1600832615.7,286047003.5,N
1600832635.6,286047003.0,N
1600832655.4,286047003.3,N
1600832675.2,286047003.0,N
1600832695.1,286047004.5,N
1600832696.0,286047004.5,Y
1600832715.8,286047000.1,P
1600832735.7,286047000.3,N
1600832755.5,286047002.3,N
1600832775.3,286046999.9,N
1600832795.2,286047000.4,N
1600832815.0,286047002.0,N
1600832815.9,286047002.0,N
1600832835.7,286047002.4,N
1600832855.6,286047001.8,N
1600832875.4,286047004.3,Y
1600832895.3,286046999.9,P
1600832915.1,286046998.1,N
1600832935.8,286046999.3,N
1600832955.7,286046995.2,Y
1600832975.5,286046997.4,P
1600832995.4,286046997.7,N
1600833015.2,286046995.0,P
1600833035.0,286046999.1,N
1600833035.9,286046999.1,N
1600833055.8,286047002.8,N
1600833075.6,286046999.3,N
1600833095.4,286046998.4,N
1600833115.3,286047000.3,N
1600833135.1,286047002.8,N
1600833155.9,286047004.0,N
1600833175.7,286047003.2,N
1600833195.5,286047004.6,N
1600833215.4,286047003.0,N
1600833235.2,286047004.3,N
1600833255.0,286047000.2,N
1600833255.9,286047000.2,N
1600833275.8,286047001.8,N
1600833295.6,286047003.0,N
1600833315.5,286047002.8,N
1600833335.3,286047000.1,N
1600833355.1,286047000.3,N
1600833375.9,286047000.9,N
1600833395.7,286046998.5,N
1600833415.6,286046998.5,N
1600833435.4,286046999.1,N
1600833455.2,286046998.9,N
1600833475.1,286046999.1,N
1600833476.0,286046999.1,N
1600833495.8,286046998.8,N
1600833515.6,286047000.4,N
1600833535.5,286046998.3,N
1600833555.3,286047001.2,N
1600833575.2,286046998.2,N
1600833595.9,286046996.6,N
